Regional Weather Roundup
Issued by NWS

Home | Current Version | Previous Version | Text Only | Print | Product List | Glossary Off
Versions: 1 2 3 4 5 6 7 8 9 10 11 12 13 14 15 16 17 18 19 20 21 22 23 24 25 26 27 28 29 30 31 32 33 34 35 36 37 38 39 40 41 42 43 44 45 46 47 48 49 50

000
ASUS43 KFSD 282302
RWRSD

WEATHER ROUNDUP FOR SOUTH DAKOTA
NATIONAL WEATHER SERVICE SIOUX FALLS SD
600 PM CDT SUN AUG 28 2016

NOTE: "FAIR" INDICATES FEW OR NO CLOUDS BELOW 12,000 FEET WITH NO
SIGNIFICANT WEATHER AND/OR OBSTRUCTIONS TO VISIBILITY.


SDZ001>005-009-010-012>017-290000-
NORTHWEST AND NORTH CENTRAL SOUTH DAKOTA

CITY           SKY/WX    TMP DP  RH WIND       PRES   REMARKS
BUFFALO          N/A     92  44  19 N10       29.91R
FAITH            N/A     94  38  14 NE6       29.94S
MOBRIDGE       SUNNY     94  42  16 SE7       29.88S
$$

SDZ012>016-024>037-041>051-057-063-072>074-290000-
SOUTHWEST AND SOUTH CENTRAL SOUTH DAKOTA

CITY           SKY/WX    TMP DP  RH WIND       PRES   REMARKS
RAPID CTY ARPT SUNNY     90  49  24 NE10      29.97S
PIERRE         SUNNY     95  54  25 SW9       29.88R
CUSTER         SUNNY     82  26  13 W10       30.15R
ELLSWORTH AFB  SUNNY     90  44  20 E9          N/A
PHILIP         SUNNY     96  44  16 CALM      29.91S
PINE RIDGE     SUNNY     90  51  26 SE10      29.99S
WINNER         FAIR      96  60  30 S15       29.95S HX  96
$$

SDZ004>011-016>023-039-040-290000-
NORTHEAST SOUTH DAKOTA

CITY           SKY/WX    TMP DP  RH WIND       PRES   REMARKS
ABERDEEN       SUNNY     88  68  51 S16       29.90S
WATERTOWN      SUNNY     86  71  60 S21G29    29.98S
BROOKINGS        N/A    N/A N/A N/A MISG        N/A
$$

SDZ017-020-022-023-036>040-048>070-290000-
SOUTHEAST SOUTH DAKOTA

CITY           SKY/WX    TMP DP  RH WIND       PRES   REMARKS
SIOUX FALLS    MOSUNNY   88  70  55 S20G26    30.02S
HURON          SUNNY     92  66  42 S14G25    29.92F
CHAMBERLAIN    SUNNY     93  64  37 S14G21    29.93S HX  95
MITCHELL       SUNNY     91  66  43 S16G24    29.95F
YANKTON        MOSUNNY   90  70  51 SE15      29.98S HX  95
$$

ABBREVIATIONS USED IN REMARKS
   TC - TEMPERATURE IN CELSIUS
  WCI - WIND CHILL INDEX
   HX - HEAT INDEX
  VSB - VISIBILITY





USA.gov is the U.S. government's official web portal to all federal, state and local government web resources and services.